DELTA 1 R/B(2) *, 2971

Orbit data source: Space-Track

DELTA 1 R/B(2) *, 2971 is space debris in HEO originally from a launch on Thu, 28 Sep 1967 UTC launched from the Air Force Eastern Test Range (AFETR). Debris objects in space refer to the collection of defunct objects orbiting the Earth. Examples of debris include non-operational satellites, rocket bodies, and fragments generated from explosions, collisions, or faulty payload assembly.

Loading next visibility...
DELTA 1 R/B(2) * details
Identifier
2971, 1967-094C
Orbit
HEO
Last TLE update1 day ago
Origin
Flag of USGSFC (US)
ManufacturerUTC
MissionSpacecraft
Bus & MotorFW4, Unknown motor
Mass~40 kg wet, ~40 kg dry
Launch date (UTC)
1967-09-28 (57 years ago)
Launch vehicleUnknown
Launch site
Air Force Eastern Test Range (AFETR)
Object type
Payload
Rocket body
Debris
Shape & HBRCyl, 1.5 m
Radar Cross Section0.687 m², Large (>1 m²)

Expand to show TLE details & history

TLE from 1 day ago
0 DELTA 1 R/B(2) *
1 02971U 67094C   24355.32652166  .00006192  00000-0  30008-2 0  9996
2 02971  28.2089 116.9866 6576099 350.0402   1.4859  3.17892008542391
Epoch: 2024-12-20T07:50Z
Definitive object data (Epoch: 2024-12-20T07:50:11.471Z)
Latitude0.00004°
Longitude-89.9717°
Altitude342.193 km
Speed9.911 km/s
True Right ascension07h 47m 52s
True Declination0° 00' 00"
Sunlit
Object was in full shadow at TLE epoch
Visualization TLE readout
Latitude14.13229°
Longitude61.35453°
Altitude21,939.309 km
Speed2.784 km/s
Apparent Right ascension18h 23m 08s
Apparent Declination6° 45' 54"
Sunlit
Object is in daylight
Visualization observer readout
Local Sidereal Time15:15:21
Azimuth115.408° SE
Elevation36.553°
Doppler factor1
Orbital elements
Apogee altitude26,014.225 km
Perigee altitude312.716 km
Semi-major axis19,541.607 km
Eccentricity0.6576099
Inclination28.2089°
RAAN116.9866°
Arg. of periapsis350.0402°
True anomaly9.51399°
Mean anomaly1.4859°
Eccentric anomaly4.33186°
Mean motion0.79452 °/min
BSTAR0.0030008
Orbital period453.11 mins
Loading maneuver chart data...
Loading historical data...
Loading historical data...
Loading historical data...
Loading historical data...
Loading historical data...
Loading historical data...
Loading historical data...

DELTA 1 R/B(2) * Visibility forecast

Observer location: undefined°, undefined

Span
Click to sort rows by Start time (UTC) header in descending order
Start Az.
Max El. time (UTC)
Max El. Az.
Max El.
End time (UTC)
End Az.
236 mins2024-12-21 16:12:56.584Z115.437° SE2024-12-21 16:12:56.584Z115.437° SE30.768°2024-12-21 20:08:56.584Z140.53° SSE
201 mins2024-12-22 12:51:56.584Z224.204° SW2024-12-22 13:00:56.584Z155.513° SSE39.405°2024-12-22 16:12:56.584Z108.979° ESE
|